• In Netherlands
  • List of Countries
  • For 7 days
  • Water Temperature
  • Satellite Maps
  • Weather Map
  • Weather Widgets
  • user-avatar
    Login

    Hourly Weather Perth

    Today, 27 May, Sunday

    Time Temperature Precipitation Wind Pressure Humidity
    00:00 +15°C° 0.1 mm 4 mps 759 mmHg 84%
    01:00 +15°C° 0.1 mm 4 mps 759 mmHg 84%
    02:00 +16°C° 0 mm 5 mps 759 mmHg 85%
    03:00 +16°C° 0.1 mm 5 mps 759 mmHg 84%
    04:00 +16°C° 0.1 mm 5 mps 759 mmHg 84%
    05:00 +17°C° 0.1 mm 5 mps 759 mmHg 83%
    06:00 +17°C° 0.1 mm 5 mps 759 mmHg 82%
    07:00 +17°C° 0.1 mm 6 mps 759 mmHg 82%
    08:00 +17°C° 0 mm 5 mps 760 mmHg 82%
    09:00 +19°C° 0.2 mm 6 mps 760 mmHg 78%
    10:00 +20°C° 0.2 mm 7 mps 760 mmHg 74%
    11:00 +20°C° 0.2 mm 8 mps 760 mmHg 70%
    12:00 +21°C° 0.2 mm 8 mps 760 mmHg 69%
    13:00 +21°C° 0.2 mm 8 mps 760 mmHg 67%
    14:00 +21°C° 0 mm 8 mps 759 mmHg 66%
    15:00 +21°C° 0.3 mm 8 mps 759 mmHg 69%
    16:00 +20°C° 0.3 mm 7 mps 760 mmHg 72%
    17:00 +18°C° 0.3 mm 7 mps 760 mmHg 75%
    18:00 +17°C° 0.1 mm 6 mps 761 mmHg 76%
    19:00 +17°C° 0.1 mm 6 mps 761 mmHg 77%
    20:00 +16°C° 0.1 mm 6 mps 762 mmHg 78%
    21:00 +15°C° 0 mm 5 mps 762 mmHg 78%
    22:00 +15°C° 0 mm 5 mps 763 mmHg 77%
    23:00 +14°C° 0 mm 5 mps 763 mmHg 77%

    Tomorrow, 28 May, Monday

    Time Temperature Precipitation Wind Pressure Humidity
    00:00 +14°C° 0 mm 5 mps 764 mmHg 76%
    01:00 +14°C° 0 mm 4 mps 764 mmHg 75%
    02:00 +13°C° 0 mm 4 mps 764 mmHg 74%
    03:00 +13°C° 0 mm 4 mps 764 mmHg 74%
    04:00 +12°C° 0 mm 3 mps 765 mmHg 74%
    05:00 +12°C° 0 mm 3 mps 765 mmHg 73%
    06:00 +12°C° 0 mm 3 mps 765 mmHg 72%
    07:00 +13°C° 0 mm 2 mps 766 mmHg 71%
    08:00 +13°C° 0 mm 2 mps 766 mmHg 70%
    09:00 +15°C° 0 mm 2 mps 767 mmHg 64%
    10:00 +17°C° 0 mm 2 mps 767 mmHg 58%
    11:00 +18°C° 0 mm 3 mps 767 mmHg 51%
    12:00 +18°C° 0 mm 3 mps 767 mmHg 51%
    13:00 +19°C° 0 mm 3 mps 766 mmHg 51%
    14:00 +19°C° 0 mm 3 mps 766 mmHg 51%
    15:00 +18°C° 0.1 mm 2 mps 766 mmHg 55%
    16:00 +17°C° 0.1 mm 2 mps 766 mmHg 59%
    17:00 +17°C° 0.1 mm 2 mps 767 mmHg 64%
    18:00 +16°C° 0 mm 2 mps 767 mmHg 68%
    19:00 +15°C° 0 mm 1 mps 767 mmHg 73%
    20:00 +14°C° 0 mm 1 mps 768 mmHg 78%
    21:00 +14°C° 0 mm 1 mps 768 mmHg 79%
    22:00 +13°C° 0 mm 1 mps 768 mmHg 80%
    23:00 +13°C° 0 mm 1 mps 768 mmHg 82%

    Day after tomorrow, 29 May, Tuesday

    Time Temperature Precipitation Wind Pressure Humidity
    00:00 +13°C° 0 mm 1 mps 768 mmHg 82%
    01:00 +12°C° 0 mm 1 mps 768 mmHg 82%
    02:00 +12°C° 0 mm 2 mps 768 mmHg 82%
    03:00 +12°C° 0 mm 2 mps 768 mmHg 82%
    04:00 +12°C° 0 mm 2 mps 768 mmHg 82%
    05:00 +12°C° 0 mm 2 mps 768 mmHg 82%
    06:00 +12°C° 0 mm 2 mps 768 mmHg 81%
    07:00 +12°C° 0 mm 2 mps 768 mmHg 80%
    08:00 +12°C° 0 mm 2 mps 769 mmHg 78%
    09:00 +14°C° 0 mm 3 mps 768 mmHg 69%
    10:00 +17°C° 0 mm 3 mps 768 mmHg 60%
    11:00 +19°C° 0 mm 3 mps 768 mmHg 51%
    12:00 +19°C° 0 mm 2 mps 768 mmHg 47%
    13:00 +20°C° 0 mm 2 mps 767 mmHg 44%
    14:00 +21°C° 0 mm 2 mps 767 mmHg 41%
    15:00 +21°C° 0 mm 1 mps 767 mmHg 44%
    16:00 +20°C° 0 mm 1 mps 767 mmHg 46%
    17:00 +19°C° 0 mm 1 mps 767 mmHg 49%
    18:00 +18°C° 0 mm 1 mps 767 mmHg 52%
    19:00 +16°C° 0 mm 2 mps 767 mmHg 54%
    20:00 +15°C° 0 mm 2 mps 767 mmHg 56%
    21:00 +15°C° 0 mm 2 mps 767 mmHg 55%
    22:00 +13°C° 0 mm 3 mps 767 mmHg 54%
    23:00 +13°C° 0 mm 3 mps 767 mmHg 52%

    30 May, Wednesday

    Time Temperature Precipitation Wind Pressure Humidity
    00:00 +13°C° 0 mm 3 mps 767 mmHg 51%
    01:00 +12°C° 0 mm 3 mps 766 mmHg 50%
    02:00 +12°C° 0 mm 4 mps 766 mmHg 49%
    03:00 +12°C° 0 mm 4 mps 766 mmHg 47%
    04:00 +12°C° 0 mm 4 mps 765 mmHg 46%
    05:00 +12°C° 0 mm 4 mps 765 mmHg 45%
    06:00 +12°C° 0 mm 5 mps 765 mmHg 45%
    07:00 +12°C° 0 mm 5 mps 765 mmHg 45%
    08:00 +12°C° 0 mm 5 mps 765 mmHg 45%
    09:00 +15°C° 0 mm 5 mps 764 mmHg 42%
    10:00 +17°C° 0 mm 5 mps 764 mmHg 38%
    11:00 +20°C° 0 mm 5 mps 763 mmHg 35%
    12:00 +21°C° 0 mm 5 mps 763 mmHg 34%
    13:00 +22°C° 0 mm 5 mps 762 mmHg 32%
    14:00 +23°C° 0 mm 4 mps 761 mmHg 31%
    15:00 +22°C° 0 mm 3 mps 761 mmHg 35%
    16:00 +21°C° 0 mm 3 mps 761 mmHg 40%
    17:00 +20°C° 0 mm 2 mps 760 mmHg 44%
    18:00 +19°C° 0 mm 2 mps 760 mmHg 47%
    19:00 +19°C° 0 mm 1 mps 760 mmHg 50%
    20:00 +18°C° 0 mm 1 mps 760 mmHg 53%
    21:00 +16°C° 0 mm 1 mps 760 mmHg 53%
    22:00 +16°C° 0 mm 2 mps 760 mmHg 54%
    23:00 +16°C° 0 mm 2 mps 760 mmHg 54%

    31 May, Thursday

    Time Temperature Precipitation Wind Pressure Humidity
    00:00 +16°C° 0 mm 2 mps 759 mmHg 55%
    01:00 +16°C° 0 mm 3 mps 759 mmHg 55%
    02:00 +14°C° 0 mm 3 mps 758 mmHg 55%
    03:00 +14°C° 0 mm 3 mps 758 mmHg 55%
    04:00 +14°C° 0 mm 3 mps 758 mmHg 56%
    05:00 +15°C° 0 mm 4 mps 758 mmHg 56%
    06:00 +15°C° 0 mm 4 mps 758 mmHg 61%
    07:00 +15°C° 0 mm 4 mps 759 mmHg 65%
    08:00 +17°C° 0 mm 4 mps 759 mmHg 70%
    09:00 +17°C° 0.2 mm 5 mps 759 mmHg 69%
    10:00 +19°C° 0.2 mm 5 mps 760 mmHg 68%
    11:00 +21°C° 0.2 mm 6 mps 760 mmHg 67%
    12:00 +20°C° 2.1 mm 5 mps 760 mmHg 73%
    13:00 +18°C° 2.1 mm 4 mps 759 mmHg 80%
    14:00 +17°C° 2.1 mm 4 mps 759 mmHg 86%
    15:00 +17°C° 0.4 mm 3 mps 760 mmHg 86%
    16:00 +17°C° 0.4 mm 3 mps 760 mmHg 86%
    17:00 +16°C° 0.4 mm 2 mps 760 mmHg 85%
    18:00 +16°C° 0 mm 2 mps 761 mmHg 86%
    19:00 +15°C° 0 mm 2 mps 761 mmHg 87%
    20:00 +15°C° 0 mm 2 mps 762 mmHg 88%
    21:00 +14°C° 0 mm 2 mps 762 mmHg 88%
    22:00 +14°C° 0 mm 2 mps 762 mmHg 88%
    23:00 +13°C° 0 mm 2 mps 762 mmHg 89%

    1 June, Friday

    Time Temperature Precipitation Wind Pressure Humidity
    00:00 +13°C° 0 mm 2 mps 762 mmHg 89%
    01:00 +13°C° 0 mm 2 mps 762 mmHg 89%
    02:00 +12°C° 0 mm 2 mps 763 mmHg 90%
    03:00 +12°C° 0 mm 2 mps 763 mmHg 90%
    04:00 +12°C° 0 mm 2 mps 763 mmHg 90%
    05:00 +11°C° 0 mm 3 mps 763 mmHg 91%
    06:00 +11°C° 0 mm 3 mps 764 mmHg 91%
    07:00 +11°C° 0 mm 3 mps 764 mmHg 90%
    08:00 +11°C° 0 mm 3 mps 764 mmHg 90%
    09:00 +14°C° 0 mm 2 mps 764 mmHg 82%
    10:00 +16°C° 0 mm 2 mps 764 mmHg 74%
    11:00 +18°C° 0 mm 1 mps 764 mmHg 66%
    12:00 +18°C° 0 mm 2 mps 764 mmHg 61%
    13:00 +19°C° 0 mm 2 mps 764 mmHg 55%
    14:00 +19°C° 0 mm 2 mps 763 mmHg 50%
    15:00 +19°C° 0 mm 2 mps 764 mmHg 53%
    16:00 +18°C° 0 mm 2 mps 764 mmHg 57%
    17:00 +17°C° 0 mm 3 mps 764 mmHg 60%
    18:00 +16°C° 0 mm 3 mps 765 mmHg 64%
    19:00 +14°C° 0 mm 3 mps 765 mmHg 67%
    20:00 +13°C° 0 mm 3 mps 766 mmHg 71%
    21:00 +13°C° 0 mm 3 mps 766 mmHg 72%
    22:00 +12°C° 0 mm 3 mps 766 mmHg 74%
    23:00 +11°C° 0 mm 3 mps 767 mmHg 75%
    Show more